Wind_Speed
31 30 29 28 26 24 22 21 19 18 16 14 12 11 11 12 11 9 7 4 4 4 5 7 9 12 13 12 12 15 16 16 17 20 25 28 31 30 31 33 29 29 31 33 35 34 34 32 28 22 17 18 18 18 18 18 18 14 10 9 9 8 8 10 12 10 8 12 12 10 9 6 7 6 6 8 9 10 10 11 10 10 10 9 10 8 7 9
30 29 28 26 25 23 22 21 20 18 16 15 13 12 12 12 11 8 5 4 4 4 5 7 9 11 10 9 11 14 14 14 15 19 23 29 31 27 33 34 28 29 31 33 33 32 35 34 29 20 16 18 17 16 17 16 17 14 8 9 7 7 9 10 11 10 10 11 9 9 7 5 6 6 6 7 8 9 10 10 10 10 10 10 10 8 7 9
29 28 26 25 24 23 21 21 20 18 16 14 14 13 12 11 10 8 7 5 6 6 6 7 8 9 8 8 11 11 11 12 13 17 22 27 27 24 34 34 27 30 30 32 32 31 35 34 28 20 17 18 18 17 16 15 13 11 8 7 8 9 12 12 11 11 11 10 8 7 7 5 6 6 6 7 7 7 8 8 8 8 9 10 9 7 8 10
28 27 25 24 23 22 21 20 20 19 16 14 13 13 12 11 11 10 9 8 7 7 6 7 7 6 6 7 9 9 8 9 11 16 21 24 21 24 35 34 29 30 30 31 31 32 35 31 25 21 19 17 20 19 15 15 12 10 7 6 10 12 11 12 12 11 9 8 6 5 7 6 7 7 6 5 4 5 7 7 7 6 8 9 8 7 9 9
26 25 24 23 23 22 21 20 20 18 16 14 13 12 11 11 10 10 9 8 7 7 6 6 5 4 5 6 7 6 6 6 10 15 19 20 19 26 36 33 29 30 30 29 30 32 34 28 22 20 18 14 19 18 13 16 14 10 10 10 13 13 11 11 10 9 8 6 5 6 7 7 8 8 6 5 4 5 7 7 7 7 8 9 7 7 9 9
26 23 23 23 23 23 22 22 21 19 17 15 14 12 11 9 8 6 5 4 5 5 5 5 4 5 5 5 5 6 8 7 11 16 17 18 21 29 33 30 28 28 29 27 27 31 31 27 21 20 19 16 17 14 12 17 14 9 12 14 14 12 11 10 8 8 6 5 5 6 7 7 8 8 6 6 7 9 8 7 7 7 8 8 6 8 10 10
26 23 21 21 23 23 23 23 22 21 19 16 15 14 13 11 8 5 2 1 2 4 4 5 6 6 6 7 7 9 10 9 13 15 16 21 26 31 31 27 26 26 27 26 24 26 28 26 20 21 21 17 15 13 14 17 13 9 13 14 12 11 11 8 8 7 6 5 5 7 7 8 8 8 7 7 8 9 8 7 7 7 8 7 7 9 10 10
27 24 21 20 22 23 23 22 22 22 20 18 17 16 15 13 11 8 6 6 6 6 6 7 8 8 9 10 9 10 10 11 15 15 18 25 29 32 30 26 23 24 25 24 23 23 25 24 20 23 22 18 17 15 15 15 11 11 12 12 10 9 9 8 8 7 6 6 6 7 8 8 7 7 7 7 8 8 7 6 6 7 7 7 8 9 10 10
26 25 23 22 22 22 22 22 21 22 20 19 18 17 16 15 13 10 9 9 9 9 10 11 11 13 14 12 11 12 12 14 18 19 22 27 29 31 29 24 20 24 25 22 24 25 23 22 20 25 26 23 20 16 16 12 10 13 11 9 9 8 8 7 8 7 7 8 7 7 8 9 7 6 6 7 8 8 7 6 7 7 7 8 8 8 9 9
24 24 24 23 22 22 22 20 19 20 19 18 17 17 17 16 14 11 10 9 10 12 13 14 16 17 16 14 14 14 16 19 21 24 28 28 28 29 27 23 20 23 25 21 24 23 19 21 23 26 26 23 18 16 16 10 9 13 10 9 8 8 8 8 8 8 9 9 8 8 8 8 6 5 5 6 7 7 7 7 8 8 8 9 8 9 9 8
23 23 23 23 23 22 21 20 19 18 17 17 16 16 16 16 16 13 11 10 12 13 16 19 20 19 16 16 17 15 18 24 26 29 32 29 28 29 25 23 23 25 25 24 25 22 19 22 22 22 22 18 15 15 15 10 10 11 9 9 8 9 9 9 8 8 9 8 8 7 7 7 6 6 5 6 6 6 7 8 9 9 8 8 8 9 9 9
23 22 23 23 23 23 22 21 20 19 18 17 16 15 14 14 14 14 12 11 12 16 20 23 21 18 16 17 19 17 20 26 29 32 32 27 27 26 22 24 27 27 27 27 27 24 24 24 24 24 21 17 15 13 13 11 11 10 8 9 9 9 9 9 8 8 8 7 7 5 5 6 5 5 5 5 6 7 8 9 10 10 9 8 9 10 10 10
24 23 22 22 23 23 22 22 21 21 19 17 15 14 14 14 13 12 12 12 12 17 22 23 20 18 19 19 19 18 21 26 31 32 29 24 25 23 21 26 30 30 29 28 26 26 27 25 26 25 21 21 19 15 13 11 9 10 10 8 7 8 8 9 9 8 8 7 6 4 4 6 5 5 4 4 7 8 8 10 11 10 8 8 10 10 10 11
23 23 22 21 22 22 21 20 20 21 19 17 14 13 13 14 13 12 13 13 13 18 23 22 19 20 21 20 18 18 20 26 31 31 26 22 24 24 27 31 32 32 31 29 26 26 26 23 22 22 21 22 19 16 14 12 11 11 10 8 7 8 8 9 9 8 7 6 5 3 3 5 5 6 3 4 7 8 8 11 12 10 9 9 10 11 11 12
22 22 21 21 20 20 19 19 19 19 18 16 14 13 13 14 15 13 15 16 16 20 22 20 19 21 21 19 19 20 21 26 29 29 25 23 25 28 31 33 33 34 32 29 27 25 25 23 23 23 22 19 15 14 15 13 12 12 9 7 8 7 7 9 9 8 7 7 6 4 3 2 4 4 3 5 7 9 10 12 12 10 9 10 11 11 12 12
21 22 22 21 20 19 18 17 19 20 17 16 17 17 16 16 16 16 17 18 19 21 21 19 19 21 19 18 20 23 25 28 30 28 26 26 28 29 31 33 34 35 33 30 26 25 24 23 23 23 20 16 13 13 13 10 9 10 7 6 8 7 8 9 9 9 8 7 6 4 2 1 2 3 3 5 7 9 10 11 12 11 10 11 11 12 13 13
20 21 22 21 21 21 20 18 21 22 17 18 19 19 18 17 17 18 18 18 19 19 17 17 18 20 20 20 23 28 32 34 34 32 30 29 29 27 29 32 33 33 31 27 24 24 23 21 21 20 17 14 12 12 10 8 7 9 7 5 7 7 8 9 8 9 8 7 6 4 3 3 4 4 4 6 7 8 9 10 13 13 12 12 12 12 13 13
18 20 21 20 20 22 23 22 21 22 21 20 19 19 20 19 20 20 18 17 17 16 14 16 17 17 19 21 24 32 38 38 37 35 31 31 28 25 26 29 32 31 29 27 24 24 22 21 20 19 17 14 13 13 8 6 7 7 7 5 7 8 8 8 7 8 8 7 6 5 4 4 5 4 5 7 8 8 8 11 14 14 13 13 13 13 13 13
17 19 19 19 19 20 23 23 20 20 20 20 21 22 23 23 21 19 16 14 13 13 12 12 12 14 19 23 28 35 38 36 34 31 28 29 27 24 24 26 30 30 29 28 25 24 22 21 20 20 18 15 15 14 7 5 6 5 6 6 7 7 7 7 7 7 8 8 7 6 5 4 4 5 5 6 8 8 9 13 15 13 12 14 15 15 14 14
16 18 18 18 19 19 22 22 21 20 21 21 22 23 24 25 23 20 19 15 12 12 10 10 13 19 25 30 35 36 34 30 28 25 22 24 24 23 23 25 30 32 31 30 25 22 21 20 20 19 16 15 16 14 8 5 6 5 5 5 6 6 6 7 7 6 7 8 7 7 5 4 5 6 6 5 7 8 10 13 16 15 13 15 16 15 15 14
14 15 16 17 17 18 20 21 21 20 22 22 22 22 23 24 24 24 24 21 17 17 15 16 21 26 31 35 35 34 31 27 22 19 18 19 19 18 20 23 29 33 32 31 24 20 19 18 18 15 12 14 14 13 10 6 5 5 4 5 6 5 6 7 7 7 7 6 6 6 5 5 5 5 6 5 6 8 9 13 16 17 16 16 16 16 15 14
11 13 14 15 16 16 17 20 20 19 20 21 21 22 22 23 23 24 27 25 22 22 20 21 26 32 35 33 31 29 26 23 20 19 20 21 18 13 16 20 25 30 30 28 21 18 17 16 16 12 9 12 12 10 9 6 4 4 4 5 5 6 6 6 6 7 7 5 5 6 5 6 6 5 6 6 8 9 10 13 15 17 18 17 16 16 16 15
9 10 12 14 15 14 14 17 19 18 19 19 19 20 20 20 20 22 27 25 23 25 26 27 28 30 28 24 24 22 16 15 17 18 21 25 21 14 13 16 18 20 22 21 17 15 14 11 11 11 8 10 9 8 8 7 5 4 4 4 5 6 5 4 5 7 7 5 4 5 4 6 8 7 7 9 9 11 11 14 16 17 18 17 17 16 16 15
7 8 9 12 13 13 12 14 17 17 17 17 17 18 18 18 18 20 24 22 22 26 28 28 26 22 17 16 16 13 8 10 13 14 17 22 18 10 8 13 13 13 16 17 12 10 8 5 7 9 7 7 7 7 8 6 6 5 4 2 4 5 4 4 6 7 6 6 5 4 6 9 9 8 9 10 10 12 13 15 17 18 18 17 17 17 16 15
5 7 8 10 12 12 11 12 15 15 15 15 15 16 17 17 17 18 22 21 21 25 25 23 22 18 15 13 12 11 9 10 12 11 11 14 11 4 5 10 11 15 20 16 8 6 5 4 6 6 6 7 7 7 7 7 7 7 5 3 4 4 4 5 6 7 6 6 5 5 6 7 7 7 10 11 11 12 13 15 16 18 19 20 19 19 17 16
4 6 6 8 11 11 11 12 12 12 12 12 13 14 14 15 16 17 19 19 17 19 20 17 15 15 12 9 11 15 11 9 12 10 8 9 7 5 8 8 9 16 19 10 4 5 4 3 5 6 6 7 7 7 7 8 7 7 6 5 5 5 5 7 7 6 3 2 3 5 5 2 5 9 11 11 10 11 13 13 15 17 19 21 20 20 19 18
4 5 6 7 9 10 11 12 11 10 10 8 8 9 8 8 10 13 13 12 10 12 17 13 10 13 11 8 11 14 12 11 12 9 7 7 6 8 10 9 11 15 11 2 3 7 4 2 2 3 6 7 7 5 7 7 4 5 7 6 7 6 6 7 6 4 1 2 3 4 5 5 4 8 10 10 10 12 14 14 15 17 18 18 18 19 19 19
6 5 5 6 8 9 11 11 11 10 9 6 4 4 5 6 6 12 10 5 5 9 14 11 8 12 10 8 12 13 11 12 12 10 11 10 11 12 10 12 15 12 3 4 2 7 4 2 3 2 5 7 6 5 7 6 2 5 7 7 7 6 5 5 4 2 1 3 3 3 4 6 3 7 9 11 12 14 15 14 16 17 17 18 18 19 18 18
8 7 5 5 6 7 9 10 11 11 10 7 4 3 7 4 10 13 9 4 8 12 14 11 8 9 6 4 10 13 10 10 12 13 15 16 16 13 11 15 14 6 5 8 6 2 1 1 4 4 4 5 7 7 8 6 3 4 6 6 7 5 4 3 2 1 2 3 0 2 3 5 1 7 8 11 13 15 14 12 14 16 17 18 18 19 19 18
10 9 7 5 4 4 7 9 11 11 10 8 6 3 6 5 5 10 7 5 11 11 10 9 4 3 3 2 6 12 11 11 14 17 20 19 15 11 11 13 7 3 6 8 8 5 3 3 6 7 5 5 7 8 6 5 5 5 5 6 7 4 3 1 1 1 3 1 3 2 2 5 2 6 7 8 9 10 11 12 13 16 18 18 19 20 20 19
12 10 8 5 3 3 4 7 9 10 9 9 6 4 4 7 3 4 4 7 9 8 8 7 3 1 3 5 9 14 15 15 19 23 21 16 9 6 7 6 1 1 4 5 4 3 2 3 5 6 7 6 5 6 6 4 4 6 5 6 5 3 2 2 2 3 3 2 3 1 2 5 4 2 3 5 5 6 10 11 12 14 18 19 19 20 21 20
13 12 10 6 4 3 2 5 6 8 8 8 6 3 3 5 3 3 6 8 5 7 8 7 6 6 9 11 15 18 19 19 19 19 16 10 5 4 3 3 2 2 2 4 5 5 5 3 4 6 6 5 4 5 7 5 4 5 5 5 4 2 2 2 2 2 1 3 2 2 2 4 5 2 2 4 5 6 8 10 10 11 15 17 18 20 21 21
15 14 11 8 6 5 3 2 3 6 7 7 6 4 2 3 3 5 7 7 3 6 8 10 13 13 13 12 12 14 16 14 11 9 6 3 5 7 7 6 6 4 0 4 5 8 7 3 4 4 3 5 6 6 6 5 5 5 5 4 4 1 0 1 0 1 1 3 2 3 2 3 3 2 2 3 5 6 7 9 11 11 13 16 17 19 20 21
16 15 13 10 8 7 4 2 1 3 5 6 6 3 2 3 5 7 7 5 4 6 9 12 16 16 14 10 7 8 7 6 7 7 6 6 7 8 8 7 7 5 3 2 4 6 5 3 4 4 3 4 7 5 3 4 5 5 3 3 3 2 2 2 2 3 3 2 2 1 1 3 2 2 3 3 4 5 5 8 11 12 12 15 17 19 20 21
17 17 14 12 11 8 6 4 1 2 3 5 5 1 4 5 5 6 7 6 6 6 8 12 15 18 17 12 8 8 5 5 5 8 9 10 9 7 5 4 5 6 7 4 3 3 2 3 4 5 5 4 5 6 4 4 5 4 3 2 2 1 2 3 3 4 5 4 1 0 2 3 4 2 1 2 2 1 3 5 9 11 11 14 18 20 21 22
17 17 16 14 13 10 7 5 3 0 2 4 3 1 4 6 5 5 6 8 9 9 10 12 14 15 15 12 11 12 9 5 4 7 8 9 8 6 3 2 3 6 7 3 3 3 3 5 3 5 6 6 6 6 5 4 3 3 4 2 0 1 0 2 2 2 4 3 2 2 3 1 3 3 3 2 2 0 1 3 5 7 9 12 17 19 20 22
17 18 18 16 14 11 9 6 4 2 1 2 1 2 5 5 6 6 7 8 10 13 12 11 14 14 12 10 9 9 9 7 6 7 6 5 6 5 3 1 2 6 9 5 3 2 2 5 5 4 6 8 7 6 6 5 3 3 3 2 2 1 2 1 2 2 2 1 2 4 4 3 3 3 4 3 2 2 1 4 4 4 5 9 13 15 16 19
17 18 18 17 14 12 10 8 6 3 0 1 1 3 5 4 4 6 7 7 10 13 12 10 13 13 10 8 9 10 9 7 7 6 5 4 4 5 3 0 1 8 12 8 4 2 2 3 5 4 6 8 8 6 6 5 5 3 1 1 1 1 1 1 2 2 3 2 2 3 3 3 5 5 3 2 2 1 2 4 5 3 2 4 9 12 14 17
16 17 17 17 15 13 11 9 6 4 2 2 2 3 5 5 4 5 7 7 9 10 9 9 10 11 9 8 8 10 10 8 7 7 6 5 4 5 4 2 3 9 11 7 3 3 2 1 3 4 4 6 7 7 6 4 5 4 3 2 2 3 1 1 2 3 4 3 3 4 3 4 7 7 3 2 1 1 2 4 5 4 3 3 6 10 12 15
14 13 13 16 16 13 11 8 6 3 4 5 4 4 6 6 5 5 6 7 9 8 7 9 9 8 8 8 8 9 9 8 8 7 6 5 5 5 5 4 5 7 8 5 3 3 2 3 1 4 4 5 6 7 6 5 5 5 5 4 3 2 2 2 1 2 5 3 2 3 3 4 7 6 3 2 0 2 3 3 4 5 4 4 5 7 9 11
14 12 11 15 14 12 10 6 5 6 5 5 5 6 6 6 5 4 5 6 8 8 8 9 9 8 8 8 7 8 7 6 7 7 6 8 7 5 6 6 6 5 6 4 4 4 3 3 0 3 6 6 5 6 6 6 6 6 5 5 4 4 4 4 2 1 3 3 3 4 4 3 6 6 5 3 1 2 3 4 5 6 6 5 5 6 7 8
14 10 11 14 13 11 9 5 6 7 5 5 7 7 6 5 4 3 4 4 6 7 8 8 9 9 8 7 6 8 7 5 6 7 7 8 7 6 8 9 7 5 5 5 5 5 4 3 3 4 5 4 4 5 5 6 7 6 6 5 4 4 5 6 3 1 2 3 3 4 4 2 4 6 6 4 3 1 3 4 6 8 8 7 7 7 8 8
13 9 11 14 12 10 8 6 6 6 5 8 9 7 6 5 4 3 3 4 5 7 7 7 7 7 7 8 7 7 7 6 6 7 7 7 7 8 11 10 8 6 5 5 5 5 5 4 5 6 5 4 5 4 5 5 6 6 6 6 6 6 6 7 6 4 5 5 4 5 3 0 4 7 8 6 5 2 3 3 5 9 10 10 9 9 10 11
15 11 11 12 12 10 8 7 7 7 7 8 8 7 6 5 4 3 3 3 5 6 6 7 7 5 6 8 7 8 8 7 6 8 8 7 6 9 10 9 9 7 7 7 6 6 6 5 6 7 5 6 7 5 4 5 6 6 6 6 8 7 7 8 6 6 8 7 6 7 5 0 4 7 7 6 5 3 3 3 4 7 10 11 10 11 12 13
15 12 12 12 12 11 9 9 9 8 8 8 7 7 6 5 4 4 4 4 4 5 6 6 6 4 5 7 6 7 9 7 5 7 9 7 5 8 9 8 8 8 8 9 8 7 6 5 7 8 6 5 4 2 1 2 3 4 5 7 8 7 8 8 6 7 9 6 6 8 7 4 6 7 5 5 5 4 3 3 3 5 9 10 10 12 13 15
14 11 12 11 12 12 10 11 10 8 8 8 8 8 6 5 5 4 4 4 4 4 6 6 5 3 4 5 5 4 6 6 5 6 7 6 4 6 8 7 7 8 8 8 8 8 6 5 7 8 7 6 4 3 1 1 2 3 3 5 6 7 8 8 8 9 7 6 8 9 8 8 9 8 6 6 5 4 3 4 4 5 7 8 9 11 12 14
14 11 12 11 11 11 10 10 10 9 9 8 7 8 7 6 6 4 3 2 3 4 5 4 4 3 3 4 4 3 4 5 4 4 5 5 4 6 7 6 7 8 7 6 8 9 7 6 7 6 6 6 4 2 3 3 3 4 4 4 6 7 7 8 10 9 7 8 9 6 6 9 11 10 8 7 5 3 3 5 7 8 8 7 8 11 13 14
15 13 14 13 11 11 10 11 11 10 9 8 7 7 7 6 4 3 2 1 2 3 3 2 2 4 4 4 3 2 3 3 3 4 5 4 4 5 5 5 6 5 6 6 5 7 7 6 6 5 4 4 4 4 3 3 4 6 6 6 7 8 8 9 11 10 9 11 11 10 11 13 12 10 8 7 6 5 6 7 8 9 8 7 8 11 13 14
17 13 14 14 10 10 12 12 11 11 10 8 7 6 6 5 4 3 2 1 1 1 1 1 1 3 3 4 3 1 2 3 3 4 6 6 6 4 3 4 5 3 3 5 5 6 6 5 6 7 4 3 4 4 4 4 5 7 8 8 8 9 10 11 11 11 12 14 14 14 15 14 12 10 9 8 8 7 8 8 8 9 9 8 7 9 12 14
18 14 14 15 11 9 11 12 11 10 10 8 6 6 6 6 5 4 3 2 2 1 0 1 2 3 3 3 3 2 4 5 4 5 7 8 6 5 3 5 7 5 3 4 5 5 5 5 6 7 7 6 5 5 5 5 6 8 9 8 8 9 11 11 12 13 14 15 14 14 15 13 11 9 8 8 7 7 8 8 8 9 9 8 7 7 10 14
19 16 13 14 13 11 11 12 12 10 9 8 7 6 7 7 5 4 3 3 3 3 3 2 3 3 3 3 3 4 5 6 6 7 8 8 8 8 7 7 8 8 6 5 5 4 5 5 5 6 8 7 5 4 5 5 9 11 8 6 6 9 9 9 10 12 12 12 11 12 12 9 8 9 8 7 7 7 7 7 7 9 9 9 9 7 8 11
18 18 15 14 14 13 12 12 12 10 9 9 8 7 7 7 5 4 3 3 3 3 4 4 3 2 3 5 6 6 6 6 7 8 9 10 11 10 10 9 9 10 9 8 6 5 5 6 5 6 8 7 4 3 4 7 10 8 4 3 4 6 7 7 9 10 10 10 10 12 11 8 7 9 7 6 7 7 7 7 8 9 10 11 10 10 10 10
Wind_Direction
354 352 349 348 349 351 349 347 344 340 337 332 321 304 293 289 288 286 286 283 279 284 275 256 238 235 239 239 231 225 227 224 217 211 206 200 202 205 192 187 187 182 185 185 183 184 186 190 192 189 181 175 175 176 180 179 172 164 171 198 204 197 185 173 173 173 174 179 172 166 170 177 195 218 236 238 245 250 254 253 254 256 256 254 251 247 239 244
355 353 351 350 351 353 353 352 350 345 342 337 328 315 303 297 296 295 290 278 272 268 265 254 235 234 238 232 224 225 228 224 218 211 205 200 201 199 186 185 185 182 184 184 182 182 186 192 193 186 172 170 170 170 172 173 169 163 185 209 190 175 167 157 165 165 161 172 168 168 180 189 207 228 236 241 246 250 258 258 257 257 253 250 249 242 230 234
358 356 354 353 354 355 356 358 355 348 345 342 334 324 314 305 299 294 281 267 263 257 255 246 235 235 232 222 222 226 226 221 216 209 203 200 200 192 184 185 183 181 183 183 181 182 187 191 192 181 162 166 168 164 165 164 167 163 173 197 173 166 171 161 159 161 161 173 171 173 191 207 221 230 234 240 247 251 256 258 261 258 251 248 245 233 226 230
0 360 359 359 359 359 359 2 359 351 348 345 338 328 318 309 298 287 275 262 252 247 245 235 230 226 214 213 219 224 222 215 213 206 201 199 193 181 182 185 181 179 183 184 180 180 185 188 192 181 159 162 167 160 161 160 158 157 157 167 159 155 164 161 156 155 159 175 177 184 204 219 229 233 233 234 256 264 252 251 254 249 244 244 240 226 220 222
2 2 4 6 6 6 5 7 4 356 352 350 346 339 329 319 305 292 281 265 247 236 230 221 212 197 192 205 211 210 187 184 203 199 195 190 179 177 181 184 180 178 180 183 182 180 184 186 186 175 156 159 166 159 167 168 155 158 166 156 150 148 153 157 154 154 160 176 184 198 214 224 234 241 234 213 223 243 240 244 242 237 239 239 233 215 212 212
3 5 8 13 16 16 15 15 12 6 2 1 1 1 356 347 333 314 295 268 236 216 210 198 175 162 174 187 182 175 159 157 186 189 186 174 166 174 180 181 181 180 178 180 182 180 186 186 179 173 158 154 163 163 173 169 148 147 168 161 153 153 154 156 155 161 174 188 200 211 225 228 232 242 237 215 217 228 235 241 234 232 235 234 221 204 203 202
8 9 12 17 22 24 26 25 23 18 13 14 15 17 18 16 13 13 31 80 156 167 168 153 141 144 154 159 152 164 166 160 172 174 168 160 162 173 178 179 178 179 179 178 176 175 181 182 184 184 164 156 167 166 170 167 149 150 168 163 156 156 156 161 168 175 188 203 218 224 234 234 235 243 238 231 229 231 236 235 229 228 226 216 205 202 201 201
15 15 18 22 26 30 32 32 32 29 23 23 26 28 29 28 29 38 61 80 102 113 126 127 125 134 137 139 141 150 155 152 155 155 155 158 163 170 176 177 173 175 175 174 170 165 172 178 186 182 166 165 172 165 164 160 152 163 171 161 154 161 166 173 180 188 201 218 230 228 233 232 233 237 233 232 233 235 232 224 218 216 211 201 203 208 206 205
19 21 26 29 32 35 39 40 40 39 35 31 33 36 36 35 35 45 66 84 101 109 120 122 122 131 129 127 129 131 134 141 143 144 151 158 162 167 175 175 168 174 170 164 163 159 165 173 177 175 168 170 169 161 156 153 163 168 167 162 162 173 178 185 191 199 212 222 228 230 234 231 228 232 240 236 229 233 225 210 203 202 202 197 200 204 205 205
22 25 31 35 37 38 41 44 45 46 44 41 39 42 44 45 45 50 67 87 104 112 117 119 124 127 121 120 120 123 132 137 140 145 150 154 160 165 174 168 153 165 168 159 156 157 169 179 181 177 170 170 171 163 151 148 177 171 164 172 177 186 190 199 203 208 220 225 225 230 231 229 226 223 247 247 227 225 215 199 194 195 198 194 192 194 198 203
24 26 32 38 39 39 40 41 45 48 49 49 49 49 52 54 54 55 65 85 102 112 116 119 123 119 117 126 121 122 137 139 142 148 150 152 156 160 170 165 146 147 154 150 148 155 175 184 187 179 168 171 175 167 156 153 170 170 172 182 188 198 203 211 216 221 226 226 220 226 237 239 229 208 224 240 218 208 203 197 194 193 193 190 193 192 193 199
30 30 30 34 37 40 40 39 41 45 47 50 54 56 57 59 62 62 62 75 97 113 120 121 119 114 120 129 123 127 141 142 145 150 152 154 154 156 165 163 151 145 142 143 147 155 166 172 177 176 169 168 166 164 163 160 168 175 182 193 202 207 214 220 226 231 226 224 214 221 244 226 218 216 219 225 208 195 198 201 196 194 194 191 192 186 182 187
34 36 33 31 35 37 39 40 40 41 42 44 49 56 59 59 63 69 70 74 96 116 124 121 115 117 122 121 118 128 140 145 150 151 149 153 154 153 159 153 147 150 144 142 151 156 161 165 171 176 172 166 164 165 166 163 170 177 181 193 201 201 217 225 227 228 219 218 205 209 227 201 223 262 237 212 200 188 196 205 201 198 197 192 188 182 178 180
34 36 38 36 34 33 35 35 34 36 36 38 44 51 59 62 60 72 85 86 102 121 125 119 114 121 120 116 120 125 137 146 150 150 144 146 152 151 153 148 141 147 145 145 156 161 163 166 167 170 167 165 163 161 165 167 168 177 184 189 191 194 213 224 223 215 208 206 194 204 225 213 253 273 236 201 188 178 194 208 207 205 198 191 187 183 180 178
36 32 35 38 35 31 30 28 29 32 34 39 48 56 62 67 64 73 91 98 111 123 125 118 118 122 116 114 122 121 130 139 142 147 143 141 152 150 147 146 143 146 147 152 163 165 165 164 160 163 163 159 154 154 163 167 171 183 188 188 196 199 205 220 218 202 201 204 194 203 232 246 261 260 232 197 177 174 195 209 209 205 195 190 187 181 176 175
34 28 28 34 37 34 28 29 30 29 38 53 60 64 63 68 74 79 93 104 115 124 125 120 121 122 115 117 123 120 128 132 132 138 138 139 151 150 143 144 147 149 153 158 163 163 162 160 157 163 165 155 151 156 161 164 176 190 195 193 197 195 194 207 212 202 205 209 198 192 210 253 222 234 242 197 180 184 195 205 206 198 190 189 184 177 173 173
28 26 26 33 41 42 37 35 31 33 57 73 65 61 61 69 80 86 96 105 114 121 123 120 121 119 116 119 122 122 126 127 126 128 133 140 150 151 144 147 151 155 160 161 159 160 159 158 157 163 167 161 159 162 164 170 180 188 200 204 195 195 189 193 209 212 213 210 200 193 209 239 218 223 240 202 191 195 193 197 202 195 185 184 181 176 173 174
24 25 29 36 45 50 45 38 36 48 69 74 64 64 68 74 81 86 94 101 107 112 114 115 115 115 118 122 125 126 125 125 127 129 134 140 147 153 147 148 155 157 161 162 158 157 157 160 163 165 171 171 169 170 166 173 181 183 192 195 192 199 196 195 207 212 209 198 195 203 218 239 224 217 226 204 194 199 194 191 198 197 186 180 178 176 176 176
26 27 32 39 45 51 51 44 46 60 70 69 71 77 80 81 81 83 90 99 105 106 111 117 112 117 127 130 130 129 126 125 128 130 136 138 143 155 148 146 158 161 163 163 157 155 159 168 171 171 180 183 175 174 160 145 162 170 182 190 190 192 191 192 198 201 195 188 191 201 205 215 210 210 215 203 197 199 195 189 191 192 186 181 178 179 180 178
27 29 34 41 44 49 54 52 54 66 74 74 78 83 85 84 82 83 86 88 96 99 110 129 125 124 129 130 128 127 124 123 125 126 133 137 141 154 153 147 157 162 163 164 163 167 173 178 180 177 182 181 171 171 168 145 143 145 159 171 174 175 172 174 186 197 187 183 195 200 201 202 200 207 207 196 197 199 196 189 185 185 186 185 181 180 182 180
29 30 36 43 47 50 53 55 61 70 76 77 78 79 82 84 83 86 86 82 85 93 108 125 128 128 127 128 125 123 124 121 122 127 131 137 137 149 161 157 158 161 164 169 173 181 185 188 188 179 171 169 162 162 168 164 149 142 141 149 159 160 161 170 185 198 188 185 207 213 209 208 210 212 205 195 191 194 194 188 184 188 188 185 183 183 182 181
35 32 36 43 51 56 54 57 67 76 79 78 78 77 80 83 84 90 90 86 87 93 103 114 122 127 126 125 123 120 121 115 114 124 134 137 128 134 163 168 168 168 169 174 174 177 189 198 191 178 167 171 174 173 176 179 170 157 149 151 150 145 152 172 188 201 196 185 214 232 223 216 230 233 222 210 191 189 192 186 185 192 191 185 184 185 183 184
47 38 38 44 52 61 62 63 69 79 85 82 80 81 83 85 87 92 92 90 92 98 107 112 117 120 118 117 116 113 115 113 109 117 138 142 126 120 141 151 165 168 163 166 166 169 185 199 193 190 184 176 184 193 192 198 199 181 175 159 138 145 155 171 195 205 204 199 213 231 229 228 243 244 230 224 202 192 192 186 183 188 191 189 187 188 188 189
61 53 45 46 52 60 67 70 72 79 88 89 87 87 90 92 92 95 96 96 99 105 113 119 118 115 115 115 108 107 123 134 120 111 134 141 121 101 111 128 156 173 165 166 174 179 177 171 175 180 184 185 193 200 195 199 200 182 179 155 126 153 165 165 190 192 202 226 228 238 239 225 236 248 233 228 218 203 198 192 186 184 188 193 192 193 192 191
77 70 58 52 56 61 66 73 76 80 87 92 92 92 95 97 96 98 103 105 105 111 118 119 117 115 119 121 116 126 133 132 130 109 110 124 111 84 117 133 163 178 168 167 187 200 192 190 180 170 181 192 196 198 191 186 188 173 164 167 143 152 156 147 167 174 192 223 218 246 249 198 199 230 228 229 228 216 209 204 197 190 189 194 197 196 193 193
103 89 75 59 59 64 66 70 74 77 85 93 92 92 97 100 111 114 110 111 112 120 128 121 114 113 112 115 130 143 138 123 134 123 98 115 129 155 159 155 176 177 166 161 186 187 185 197 195 194 193 192 194 196 188 186 187 164 152 164 151 146 151 150 166 183 205 223 206 249 267 205 188 204 215 230 232 223 222 216 208 201 198 199 201 198 195 195
138 113 92 69 64 64 66 68 66 65 78 102 103 102 107 93 120 139 120 111 119 130 139 132 114 118 123 131 139 152 159 140 138 145 130 135 164 165 160 160 165 167 165 162 162 147 123 99 138 187 193 195 201 186 178 192 183 132 142 152 141 145 155 154 175 206 290 277 230 236 259 275 238 188 204 226 226 224 225 219 213 211 209 208 205 202 201 199
163 141 113 85 71 61 64 64 60 54 57 83 105 135 142 49 73 152 143 107 142 151 152 151 133 138 153 159 154 170 181 154 150 166 157 149 153 147 144 149 150 156 195 293 177 124 94 53 61 125 188 193 193 173 165 178 130 120 145 147 139 148 154 154 184 210 296 255 217 185 230 269 235 167 194 213 215 225 228 222 216 214 215 212 208 207 207 206
177 163 139 107 81 65 67 61 57 53 43 49 65 140 170 61 62 117 119 88 150 164 165 163 155 152 155 163 174 186 184 165 170 170 158 153 149 141 137 146 153 178 256 268 251 234 272 209 116 122 173 178 170 166 154 149 143 144 148 147 148 149 145 162 203 197 268 267 122 131 228 277 205 154 184 203 210 224 232 230 221 218 217 213 210 209 209 209
186 176 161 134 103 75 73 63 59 58 44 41 47 81 172 178 87 91 81 104 146 163 170 164 153 120 101 85 178 187 181 175 171 157 152 154 149 143 144 146 154 242 265 267 260 254 253 188 136 130 145 151 157 162 154 153 161 150 136 138 140 133 139 171 203 232 243 205 76 88 238 279 258 141 164 199 209 212 219 225 220 215 215 213 211 210 209 209
194 185 178 168 153 121 87 74 66 60 49 43 44 51 135 163 146 64 86 132 151 179 192 198 231 128 138 121 124 148 159 159 157 152 155 161 157 153 153 146 112 310 248 248 237 207 181 156 147 140 139 144 164 178 180 184 159 141 142 151 147 139 175 193 172 222 252 108 82 7 240 257 259 112 135 193 202 197 202 213 217 213 211 210 210 209 211 211
201 193 188 193 193 179 124 88 76 62 51 42 50 73 145 154 121 62 125 139 166 200 193 199 189 132 121 122 112 120 132 138 146 157 167 180 203 227 225 219 252 284 177 157 152 151 140 146 163 148 139 144 157 169 174 175 162 160 170 189 207 174 170 215 171 195 322 78 62 303 240 241 260 298 281 218 213 216 204 204 213 216 212 209 209 209 211 213
204 199 194 204 214 203 176 114 85 68 56 39 50 79 198 186 111 105 141 149 177 192 179 179 172 144 126 128 120 120 132 144 158 177 194 238 263 266 269 251 247 269 54 116 145 149 141 167 191 154 145 161 151 150 167 169 172 184 187 208 253 306 73 278 138 95 60 80 29 325 235 241 244 206 217 208 208 217 213 208 211 216 214 208 208 210 212 213
206 203 199 208 223 215 202 195 110 74 63 44 43 73 152 146 132 133 144 163 176 175 180 183 177 167 159 153 137 129 147 184 207 221 248 269 263 263 263 251 248 251 241 209 174 158 148 172 180 166 175 178 164 161 165 154 160 176 192 236 275 322 329 320 10 19 14 39 18 345 254 307 332 192 217 234 217 213 220 222 222 223 218 207 203 207 211 213
208 205 203 212 225 222 220 226 199 68 56 50 39 68 136 125 142 143 137 149 156 153 166 173 172 173 177 188 215 224 228 246 237 228 240 246 244 253 251 242 252 233 219 208 171 176 164 135 159 189 190 179 178 171 145 134 152 162 161 214 260 313 325 328 359 357 333 325 353 270 282 336 10 10 280 234 206 236 248 231 230 231 225 210 201 203 207 210
209 207 207 214 224 227 231 234 230 333 55 54 44 84 120 125 142 151 152 152 150 148 148 152 161 173 183 198 224 229 217 221 231 212 217 226 227 236 227 227 250 208 195 195 175 187 159 124 151 210 197 189 190 175 161 154 141 151 154 149 38 17 285 300 304 259 275 297 32 4 318 358 75 75 60 78 110 23 257 195 206 222 229 222 210 207 207 206
210 208 211 215 221 229 236 238 240 242 61 44 50 119 112 127 140 145 162 163 156 153 147 150 164 174 184 183 187 196 193 199 206 186 179 188 193 192 181 214 245 175 167 168 182 207 163 129 145 194 203 203 201 180 178 180 140 134 152 132 102 108 158 255 288 246 259 327 51 20 4 10 29 72 81 74 83 58 93 136 157 196 226 232 221 218 216 207
209 209 212 216 220 227 237 243 243 243 285 341 213 153 130 138 149 151 163 170 165 161 161 169 173 175 179 173 170 177 178 184 195 186 169 165 176 173 159 114 178 160 153 143 143 187 204 145 141 172 208 209 202 184 182 193 183 177 199 171 206 275 151 171 313 311 325 7 52 20 10 23 20 37 71 88 83 63 94 120 128 141 178 224 223 221 221 213
208 207 211 216 218 224 235 244 245 244 245 226 201 167 148 146 151 155 166 174 168 168 182 189 179 177 179 173 175 181 183 192 205 203 186 168 168 171 165 130 142 164 160 145 147 182 218 231 142 154 203 200 188 194 199 208 216 224 227 194 236 313 342 358 335 322 318 341 28 3 359 63 45 27 27 55 87 148 140 137 141 147 156 185 209 214 218 219
202 199 210 214 215 223 230 239 243 230 234 230 208 174 154 150 152 153 163 177 173 174 194 191 182 185 185 182 185 186 189 198 200 200 197 182 173 178 185 161 142 169 178 177 192 184 216 276 153 134 179 181 181 211 211 189 201 219 215 206 215 237 259 268 277 319 318 324 15 1 347 46 48 30 23 35 348 200 174 171 171 175 178 178 198 213 216 221
194 188 207 208 208 219 221 226 227 207 217 232 210 182 163 157 160 153 152 171 180 186 192 187 185 192 191 188 195 196 193 198 197 200 204 195 189 194 200 181 155 163 178 186 207 201 217 274 215 152 181 179 182 212 205 187 204 224 222 224 225 217 249 262 214 193 295 313 345 333 322 16 47 33 22 19 323 236 209 207 195 194 193 182 197 214 216 218
185 187 207 199 198 210 205 208 219 198 198 213 202 191 175 159 158 159 148 149 169 183 186 186 190 194 192 188 196 200 196 197 200 199 199 195 193 198 194 185 172 164 178 201 216 216 227 257 253 210 191 182 193 213 217 206 214 235 240 242 244 233 254 277 291 307 263 277 304 296 295 11 49 25 12 10 354 280 238 234 211 204 196 184 193 208 215 219
176 187 202 190 189 197 186 196 207 184 188 204 198 192 178 160 151 154 155 150 164 176 174 176 183 190 199 199 198 199 198 201 204 198 192 183 190 202 197 193 198 189 190 217 226 229 233 238 248 235 200 201 226 241 259 248 229 234 235 236 245 243 251 272 292 307 288 280 283 276 269 91 34 9 4 5 355 317 271 265 229 215 206 192 190 202 211 218
174 179 187 183 185 186 180 193 192 173 185 194 190 191 184 173 162 147 156 170 180 187 180 175 176 178 197 200 198 199 198 201 209 202 187 172 186 203 194 193 206 199 197 212 219 232 238 233 243 243 212 199 209 213 236 245 236 235 237 241 246 249 255 262 270 277 273 274 286 291 288 20 19 353 351 358 346 317 283 281 249 226 218 207 201 203 207 214
174 176 181 183 186 184 186 195 184 174 185 183 183 190 182 181 181 155 153 160 163 183 181 175 176 175 188 191 192 198 196 194 203 199 189 180 188 199 191 192 203 202 209 213 207 219 236 234 239 251 249 221 209 199 195 200 214 227 244 256 257 253 248 252 267 269 265 269 275 276 282 315 343 331 332 349 337 309 275 265 244 220 220 223 222 216 213 213
175 178 183 188 190 189 195 195 180 176 186 180 185 193 183 186 192 168 148 144 137 160 169 172 178 176 184 186 181 189 196 196 192 184 189 193 199 205 202 204 211 213 221 220 211 217 232 236 237 255 272 284 329 357 318 240 253 255 258 262 269 265 247 243 255 263 274 289 277 268 275 299 314 310 314 334 327 295 261 240 224 213 216 228 235 233 229 224
181 184 184 184 190 194 199 192 178 180 186 179 186 195 187 188 191 180 166 149 135 149 156 165 176 172 178 187 185 190 198 198 191 184 193 202 214 218 215 217 223 225 234 235 222 219 229 243 241 242 255 272 307 300 231 230 261 274 279 267 267 274 263 246 247 260 285 286 280 291 296 295 302 303 306 319 316 280 241 227 224 227 229 232 238 240 239 237
189 190 185 180 181 187 192 187 177 179 184 179 181 186 179 178 181 177 182 171 142 145 138 136 167 174 180 180 177 196 207 200 204 210 211 217 227 225 224 235 238 239 252 259 236 218 225 241 238 228 234 250 244 223 219 245 263 269 277 271 263 269 269 257 254 264 272 269 282 308 305 294 298 301 298 299 294 272 250 240 236 235 234 234 236 238 238 239
193 193 189 185 183 185 189 187 180 182 187 184 182 181 175 174 183 191 189 170 178 182 134 118 208 201 197 188 167 170 208 195 207 226 226 229 229 216 207 225 231 251 279 273 255 232 229 241 236 225 221 222 221 224 240 263 270 273 274 270 264 261 259 258 260 264 267 270 279 289 292 293 295 295 292 287 282 272 261 255 245 233 232 238 241 240 238 238
196 195 193 192 191 187 188 189 183 185 193 193 191 193 188 184 194 211 214 183 197 235 269 307 258 241 229 214 191 198 221 214 224 241 236 236 236 229 219 211 210 223 248 259 260 238 222 246 250 230 220 213 219 251 262 260 272 280 279 278 280 275 266 260 263 270 276 279 279 281 288 295 293 291 291 289 284 273 259 256 246 234 238 249 253 253 247 240
198 197 194 194 195 188 185 189 187 186 192 196 199 205 204 205 211 222 226 216 226 253 262 267 274 266 263 257 232 231 241 236 240 251 246 243 241 236 235 224 212 216 217 225 248 230 210 239 249 233 234 222 201 236 262 267 274 277 277 284 291 283 273 266 268 276 280 278 278 281 283 286 289 293 297 300 292 265 249 251 244 238 248 255 256 268 271 253
200 199 196 196 199 193 186 189 193 194 199 205 208 210 213 218 220 216 227 246 256 265 260 264 288 293 283 286 281 276 276 267 261 263 256 252 249 242 241 238 227 224 220 218 231 221 210 231 239 240 251 242 208 229 268 275 274 272 266 284 287 276 275 278 278 281 282 271 264 269 276 282 293 295 297 299 285 254 234 239 241 243 253 257 261 279 293 280
Height
3094 3091 3089 3086 3083 3080 3078 3076 3073 3071 3070 3068 3067 3066 3064 3063 3062 3062 3061 3061 3061 3062 3062 3062 3063 3064 3066 3067 3069 3070 3071 3072 3074 3076 3079 3082 3084 3086 3090 3096 3100 3103 3106 3108 3112 3116 3119 3121 3124 3127 3129 3131 3133 3136 3138 3140 3142 3143 3146 3147 3148 3148 3149 3149 3151 3152 3152 3152 3153 3154 3155 3156 3156 3156 3157 3157 3157 3157 3157 3156 3157 3157 3157 3157 3157 3158 3158 3157
3094 3092 3089 3086 3083 3080 3077 3075 3073 3071 3069 3068 3067 3066 3065 3063 3062 3062 3061 3061 3061 3061 3061 3061 3062 3064 3065 3067 3068 3069 3070 3072 3074 3075 3078 3080 3082 3086 3091 3096 3099 3102 3105 3108 3112 3115 3118 3120 3124 3127 3130 3132 3134 3136 3138 3140 3141 3143 3146 3147 3147 3148 3148 3149 3151 3151 3152 3153 3153 3154 3154 3155 3155 3155 3156 3156 3156 3156 3156 3155 3156 3156 3156 3155 3156 3157 3157 3156
3095 3092 3089 3086 3083 3080 3077 3075 3073 3071 3069 3067 3066 3066 3065 3063 3062 3061 3061 3060 3060 3060 3060 3061 3062 3063 3065 3066 3068 3069 3070 3072 3073 3075 3077 3080 3083 3087 3092 3097 3100 3102 3105 3108 3111 3114 3117 3120 3124 3127 3130 3132 3134 3136 3138 3140 3142 3143 3145 3146 3146 3146 3146 3148 3149 3149 3151 3152 3152 3153 3153 3153 3154 3154 3154 3155 3155 3155 3155 3155 3155 3155 3154 3154 3154 3155 3155 3155
3095 3092 3089 3086 3083 3080 3077 3075 3073 3071 3069 3067 3066 3065 3064 3063 3062 3061 3060 3060 3059 3060 3060 3061 3062 3063 3065 3066 3068 3069 3070 3072 3073 3075 3077 3081 3084 3088 3093 3098 3100 3102 3105 3108 3110 3114 3117 3120 3124 3126 3130 3133 3133 3136 3139 3140 3142 3143 3144 3145 3145 3145 3146 3147 3148 3149 3150 3151 3151 3152 3152 3152 3152 3153 3153 3153 3154 3154 3154 3153 3154 3154 3154 3153 3154 3154 3154 3155
3096 3092 3089 3086 3083 3080 3078 3075 3073 3071 3070 3067 3066 3064 3063 3062 3061 3060 3059 3059 3059 3059 3060 3061 3062 3063 3065 3066 3068 3069 3071 3072 3073 3075 3078 3081 3085 3090 3094 3098 3100 3102 3105 3108 3111 3114 3117 3121 3124 3127 3130 3133 3134 3136 3139 3139 3141 3142 3143 3144 3145 3146 3147 3147 3148 3149 3149 3150 3150 3151 3151 3151 3151 3151 3151 3152 3153 3153 3152 3152 3153 3153 3152 3152 3153 3154 3153 3154
3096 3093 3090 3087 3084 3081 3078 3076 3074 3072 3070 3068 3066 3064 3063 3062 3061 3060 3059 3058 3059 3059 3060 3061 3062 3064 3065 3066 3068 3069 3071 3072 3073 3075 3079 3082 3086 3090 3095 3099 3101 3103 3105 3108 3111 3113 3117 3121 3124 3127 3129 3132 3135 3137 3138 3139 3140 3142 3143 3143 3144 3145 3146 3147 3147 3148 3148 3149 3149 3150 3150 3150 3150 3150 3150 3150 3150 3150 3150 3151 3151 3151 3151 3152 3152 3153 3153 3153
3096 3093 3090 3087 3084 3082 3079 3077 3075 3073 3071 3069 3067 3065 3063 3062 3061 3060 3059 3058 3059 3060 3061 3062 3063 3064 3065 3066 3068 3069 3070 3072 3073 3076 3080 3083 3087 3091 3096 3099 3101 3103 3105 3108 3112 3114 3116 3121 3124 3126 3128 3132 3134 3136 3137 3138 3140 3142 3143 3143 3143 3144 3145 3146 3147 3147 3148 3148 3148 3148 3149 3149 3149 3149 3149 3149 3148 3148 3149 3149 3150 3150 3150 3151 3151 3152 3152 3152
3098 3094 3091 3088 3085 3083 3080 3078 3076 3074 3073 3070 3068 3066 3064 3063 3062 3061 3060 3059 3059 3060 3061 3062 3063 3065 3066 3067 3068 3070 3071 3073 3075 3078 3081 3085 3088 3092 3096 3099 3102 3104 3105 3108 3112 3114 3116 3122 3125 3126 3129 3131 3133 3135 3137 3138 3140 3141 3142 3142 3143 3144 3145 3146 3146 3147 3147 3147 3147 3147 3148 3148 3148 3148 3148 3147 3147 3147 3148 3148 3149 3149 3150 3150 3151 3151 3152 3152
3099 3096 3092 3089 3087 3084 3081 3079 3077 3075 3073 3071 3069 3067 3065 3064 3063 3062 3061 3061 3061 3061 3062 3063 3064 3066 3067 3068 3070 3071 3073 3074 3076 3080 3083 3086 3090 3093 3097 3100 3102 3103 3106 3109 3111 3114 3118 3123 3125 3126 3128 3130 3132 3134 3136 3138 3140 3140 3141 3142 3143 3143 3144 3145 3145 3146 3146 3146 3146 3147 3147 3146 3147 3147 3147 3146 3146 3146 3147 3148 3148 3148 3149 3150 3150 3151 3151 3151
3100 3097 3094 3091 3088 3086 3083 3080 3078 3076 3074 3072 3071 3069 3067 3066 3065 3065 3063 3062 3062 3062 3063 3064 3065 3067 3069 3070 3071 3073 3075 3076 3078 3081 3084 3088 3091 3095 3098 3101 3102 3103 3107 3111 3112 3116 3120 3122 3124 3126 3127 3129 3132 3134 3135 3137 3139 3139 3141 3141 3142 3143 3144 3144 3144 3145 3145 3145 3146 3146 3145 3145 3146 3146 3146 3145 3145 3145 3146 3147 3148 3148 3149 3149 3150 3150 3151 3151
3102 3099 3096 3093 3090 3087 3085 3082 3080 3077 3075 3073 3072 3070 3069 3068 3067 3067 3066 3065 3064 3064 3064 3066 3068 3069 3070 3071 3072 3075 3076 3077 3079 3082 3086 3089 3092 3095 3099 3101 3103 3105 3109 3112 3114 3118 3121 3122 3124 3127 3129 3131 3133 3134 3135 3136 3138 3139 3140 3141 3142 3142 3143 3143 3143 3144 3144 3144 3145 3145 3145 3144 3144 3145 3145 3144 3144 3145 3146 3147 3147 3148 3148 3149 3149 3150 3151 3151
3103 3101 3098 3095 3092 3090 3087 3085 3082 3080 3077 3075 3073 3072 3071 3070 3069 3069 3069 3068 3067 3066 3067 3068 3070 3071 3072 3073 3073 3075 3077 3078 3080 3084 3087 3090 3093 3096 3099 3102 3103 3106 3109 3112 3115 3118 3121 3123 3124 3127 3130 3132 3134 3134 3135 3136 3138 3139 3140 3141 3141 3142 3142 3142 3143 3143 3143 3143 3144 3144 3144 3144 3143 3143 3144 3143 3143 3144 3145 3146 3147 3147 3148 3149 3149 3150 3150 3151
3105 3102 3100 3098 3095 3092 3090 3087 3085 3082 3080 3078 3076 3074 3072 3071 3071 3070 3070 3070 3070 3070 3070 3071 3072 3073 3073 3075 3076 3077 3078 3080 3082 3085 3088 3091 3095 3098 3101 3102 3104 3106 3109 3112 3115 3117 3120 3123 3124 3127 3130 3132 3133 3134 3135 3137 3138 3139 3140 3141 3141 3142 3142 3141 3142 3142 3142 3143 3143 3144 3144 3144 3143 3142 3142 3142 3142 3144 3145 3146 3146 3147 3148 3148 3149 3149 3150 3150
3107 3104 3102 3100 3098 3095 3092 3090 3087 3085 3082 3080 3078 3076 3074 3073 3072 3072 3072 3072 3073 3073 3073 3074 3074 3075 3075 3077 3078 3079 3080 3081 3084 3087 3091 3093 3096 3099 3102 3104 3105 3108 3110 3111 3115 3117 3120 3123 3125 3128 3130 3131 3133 3134 3136 3137 3138 3139 3140 3140 3141 3142 3141 3140 3141 3141 3142 3142 3142 3143 3143 3143 3142 3141 3141 3141 3142 3143 3144 3145 3145 3146 3147 3148 3148 3149 3149 3150
3109 3106 3103 3101 3099 3097 3095 3092 3089 3086 3084 3082 3080 3078 3077 3075 3075 3074 3074 3074 3075 3075 3076 3076 3077 3077 3078 3079 3080 3081 3082 3084 3086 3090 3093 3096 3099 3102 3103 3104 3106 3109 3111 3112 3115 3118 3120 3123 3126 3128 3130 3131 3133 3134 3136 3137 3138 3139 3139 3140 3140 3141 3140 3140 3140 3141 3141 3141 3142 3142 3143 3143 3141 3140 3140 3140 3141 3143 3144 3144 3144 3145 3147 3147 3148 3149 3149 3150
3110 3108 3105 3103 3100 3099 3096 3094 3091 3088 3085 3084 3082 3081 3080 3078 3077 3077 3077 3076 3077 3078 3079 3079 3079 3079 3080 3082 3083 3083 3085 3087 3090 3093 3095 3098 3102 3104 3104 3106 3107 3109 3112 3114 3117 3119 3122 3124 3126 3128 3130 3131 3133 3134 3136 3137 3138 3138 3138 3139 3139 3139 3140 3139 3139 3140 3140 3141 3141 3141 3142 3142 3141 3139 3139 3139 3140 3141 3142 3143 3143 3144 3146 3147 3148 3148 3149 3149
3111 3109 3107 3105 3102 3100 3098 3096 3093 3089 3087 3086 3085 3084 3082 3081 3080 3080 3080 3080 3080 3081 3081 3081 3082 3082 3083 3085 3086 3086 3088 3090 3092 3095 3098 3100 3104 3106 3105 3107 3109 3111 3114 3116 3119 3121 3123 3125 3126 3128 3130 3130 3132 3134 3135 3136 3137 3137 3137 3138 3138 3138 3139 3139 3139 3139 3139 3140 3140 3141 3141 3142 3141 3139 3138 3139 3139 3140 3141 3142 3142 3143 3145 3147 3147 3148 3149 3149
3112 3110 3108 3106 3104 3102 3100 3098 3095 3092 3090 3089 3088 3086 3085 3084 3083 3083 3083 3084 3083 3083 3084 3085 3085 3085 3086 3087 3089 3090 3091 3092 3095 3097 3100 3102 3105 3108 3108 3109 3111 3113 3115 3118 3121 3123 3124 3126 3126 3127 3129 3129 3131 3133 3134 3134 3135 3136 3136 3136 3137 3137 3138 3139 3138 3138 3138 3139 3140 3140 3141 3141 3140 3138 3138 3138 3138 3139 3140 3141 3141 3143 3145 3146 3147 3148 3149 3149
3113 3111 3109 3108 3106 3104 3102 3100 3098 3095 3093 3092 3090 3089 3088 3087 3087 3087 3086 3086 3086 3086 3087 3087 3087 3088 3089 3090 3091 3093 3095 3097 3098 3100 3102 3103 3106 3110 3110 3111 3113 3115 3117 3120 3123 3124 3125 3126 3126 3126 3127 3129 3130 3132 3133 3134 3134 3135 3135 3136 3136 3137 3137 3138 3138 3137 3137 3138 3139 3140 3141 3141 3140 3138 3137 3137 3138 3138 3139 3140 3141 3142 3144 3146 3147 3148 3149 3149
3114 3112 3110 3109 3107 3105 3103 3102 3100 3098 3096 3094 3093 3092 3091 3090 3090 3089 3089 3089 3088 3088 3088 3089 3089 3091 3092 3093 3094 3096 3099 3101 3102 3104 3106 3106 3108 3111 3112 3112 3114 3116 3119 3122 3124 3125 3126 3126 3126 3126 3128 3128 3129 3131 3133 3134 3134 3134 3135 3135 3135 3136 3136 3137 3137 3136 3137 3138 3139 3139 3140 3140 3140 3138 3137 3137 3137 3137 3138 3139 3140 3142 3143 3145 3146 3147 3148 3149
3114 3113 3111 3110 3108 3107 3105 3104 3103 3101 3098 3097 3096 3095 3093 3092 3092 3092 3091 3091 3092 3091 3091 3091 3092 3094 3095 3097 3098 3100 3102 3104 3106 3107 3109 3110 3111 3113 3114 3114 3115 3118 3120 3122 3123 3125 3126 3126 3127 3127 3128 3128 3129 3130 3132 3133 3134 3134 3134 3134 3135 3135 3135 3136 3136 3136 3136 3137 3138 3138 3139 3139 3139 3138 3137 3136 3136 3137 3138 3139 3139 3141 3142 3144 3145 3147 3148 3148
3115 3114 3112 3111 3109 3108 3106 3105 3105 3103 3101 3100 3099 3097 3096 3096 3095 3094 3093 3094 3095 3094 3094 3095 3096 3098 3100 3102 3102 3104 3106 3107 3109 3110 3111 3112 3114 3115 3115 3115 3117 3119 3120 3122 3124 3125 3126 3127 3126 3126 3126 3128 3128 3129 3131 3132 3133 3133 3133 3133 3133 3134 3134 3135 3135 3135 3135 3137 3138 3137 3138 3138 3137 3137 3136 3136 3136 3136 3137 3138 3139 3139 3141 3143 3144 3146 3147 3147
3116 3115 3113 3112 3110 3109 3108 3107 3106 3106 3104 3102 3101 3100 3100 3099 3098 3097 3096 3097 3099 3098 3097 3099 3102 3103 3104 3106 3106 3107 3109 3110 3111 3112 3113 3114 3115 3117 3117 3117 3119 3120 3120 3123 3125 3126 3126 3126 3125 3126 3127 3128 3128 3129 3130 3132 3132 3132 3132 3131 3132 3133 3133 3134 3135 3135 3135 3136 3137 3137 3137 3137 3136 3135 3136 3135 3135 3135 3136 3137 3138 3139 3140 3142 3143 3145 3146 3146
3116 3115 3114 3113 3111 3110 3109 3108 3108 3107 3106 3105 3104 3103 3102 3102 3101 3100 3099 3100 3102 3103 3102 3102 3105 3107 3108 3109 3109 3110 3112 3112 3113 3114 3115 3115 3116 3117 3118 3118 3121 3123 3122 3124 3126 3126 3126 3125 3125 3126 3127 3127 3128 3129 3129 3131 3131 3131 3132 3131 3132 3132 3133 3134 3134 3134 3135 3135 3135 3136 3135 3135 3134 3134 3134 3134 3134 3134 3135 3136 3137 3138 3140 3141 3142 3143 3144 3146
3116 3115 3115 3113 3112 3111 3110 3109 3109 3109 3108 3107 3106 3106 3105 3104 3104 3103 3102 3103 3104 3106 3107 3107 3107 3109 3110 3110 3111 3112 3114 3114 3114 3115 3116 3117 3116 3117 3119 3120 3122 3123 3123 3125 3126 3126 3126 3126 3125 3126 3126 3126 3127 3128 3128 3130 3130 3130 3131 3131 3132 3132 3133 3133 3133 3133 3134 3134 3134 3134 3132 3131 3132 3133 3133 3133 3133 3133 3134 3134 3135 3137 3138 3140 3140 3142 3143 3144
3115 3115 3115 3114 3113 3111 3111 3110 3109 3110 3109 3109 3108 3108 3107 3106 3106 3105 3105 3105 3106 3108 3109 3109 3109 3110 3111 3112 3112 3113 3115 3115 3115 3116 3116 3117 3117 3117 3120 3121 3121 3121 3122 3124 3125 3126 3126 3125 3124 3125 3126 3126 3126 3127 3128 3128 3128 3129 3131 3131 3131 3132 3132 3132 3133 3133 3132 3132 3132 3133 3130 3129 3130 3132 3131 3131 3131 3132 3133 3133 3134 3135 3136 3138 3139 3140 3142 3143
3115 3115 3115 3114 3113 3112 3111 3110 3110 3110 3110 3109 3109 3109 3108 3108 3107 3106 3107 3107 3108 3109 3110 3110 3110 3110 3111 3112 3113 3114 3115 3116 3116 3116 3117 3118 3118 3119 3121 3122 3122 3122 3123 3123 3123 3124 3124 3124 3124 3124 3125 3126 3126 3126 3127 3127 3127 3128 3130 3130 3131 3132 3132 3132 3133 3133 3132 3132 3131 3131 3131 3129 3128 3129 3130 3129 3130 3131 3131 3132 3133 3134 3135 3136 3138 3139 3140 3141
3114 3114 3114 3114 3114 3112 3111 3111 3110 3110 3110 3110 3109 3108 3108 3107 3107 3106 3108 3110 3110 3110 3111 3110 3110 3111 3111 3112 3112 3114 3115 3115 3117 3117 3117 3119 3120 3121 3122 3122 3122 3121 3122 3123 3122 3123 3124 3123 3124 3124 3125 3126 3125 3125 3126 3127 3127 3128 3129 3130 3131 3132 3132 3132 3133 3132 3132 3131 3129 3130 3131 3128 3125 3126 3128 3128 3129 3129 3129 3131 3132 3133 3134 3135 3136 3138 3139 3140
3114 3114 3114 3114 3113 3113 3112 3111 3110 3110 3110 3109 3109 3109 3108 3108 3107 3107 3108 3111 3112 3112 3112 3111 3111 3110 3111 3112 3112 3113 3114 3115 3117 3117 3118 3119 3120 3121 3122 3122 3122 3121 3122 3122 3122 3123 3123 3123 3123 3123 3125 3125 3125 3125 3126 3127 3128 3128 3129 3130 3131 3131 3131 3132 3132 3132 3132 3129 3127 3129 3131 3127 3123 3125 3127 3127 3128 3128 3128 3129 3130 3131 3133 3134 3135 3136 3137 3139
3113 3113 3113 3113 3113 3113 3112 3111 3110 3110 3110 3109 3109 3109 3108 3108 3109 3109 3110 3113 3114 3114 3113 3112 3112 3111 3111 3112 3112 3112 3114 3115 3117 3118 3119 3120 3120 3121 3121 3121 3122 3121 3121 3122 3122 3123 3123 3123 3123 3123 3124 3125 3125 3126 3126 3127 3127 3128 3129 3130 3131 3131 3132 3132 3131 3131 3130 3127 3127 3129 3130 3128 3124 3123 3126 3126 3126 3127 3128 3128 3128 3130 3131 3132 3133 3134 3136 3137
3112 3112 3113 3113 3113 3112 3112 3111 3110 3110 3110 3110 3109 3109 3108 3109 3109 3110 3112 3114 3114 3114 3114 3113 3113 3113 3113 3113 3113 3113 3114 3115 3117 3118 3119 3120 3121 3121 3121 3121 3121 3121 3121 3122 3122 3123 3123 3123 3123 3123 3124 3125 3125 3126 3126 3127 3127 3129 3130 3130 3130 3130 3131 3130 3130 3130 3127 3125 3128 3129 3129 3129 3125 3123 3125 3126 3126 3126 3127 3128 3127 3128 3129 3130 3132 3133 3134 3135
3111 3111 3112 3112 3112 3112 3112 3111 3111 3110 3110 3110 3109 3109 3109 3109 3110 3111 3112 3113 3114 3113 3113 3113 3114 3114 3113 3114 3114 3115 3116 3117 3119 3120 3121 3120 3120 3121 3121 3121 3122 3121 3121 3121 3122 3123 3124 3124 3123 3123 3124 3125 3126 3126 3126 3127 3128 3130 3130 3130 3128 3127 3128 3128 3126 3126 3124 3124 3128 3128 3128 3128 3125 3124 3125 3126 3126 3126 3126 3127 3127 3127 3127 3129 3130 3132 3133 3134
3109 3110 3111 3112 3111 3111 3112 3111 3111 3110 3110 3110 3109 3109 3109 3109 3110 3112 3112 3112 3112 3112 3112 3113 3114 3115 3114 3115 3116 3117 3117 3119 3120 3120 3121 3120 3119 3120 3120 3121 3121 3122 3121 3121 3122 3122 3123 3124 3123 3124 3124 3124 3126 3126 3126 3127 3129 3129 3129 3129 3127 3125 3128 3128 3124 3123 3124 3125 3127 3127 3126 3125 3123 3124 3125 3125 3126 3125 3125 3126 3126 3126 3126 3128 3129 3131 3132 3133
3107 3109 3110 3111 3111 3111 3111 3111 3111 3110 3110 3110 3109 3109 3109 3109 3110 3112 3112 3112 3112 3112 3112 3112 3114 3116 3116 3117 3118 3117 3117 3118 3119 3119 3119 3119 3119 3120 3120 3120 3121 3121 3122 3122 3121 3120 3121 3122 3123 3124 3124 3124 3125 3126 3126 3127 3128 3129 3129 3129 3128 3126 3127 3126 3123 3123 3124 3125 3125 3126 3125 3123 3121 3123 3124 3124 3124 3124 3124 3124 3124 3125 3125 3126 3128 3129 3131 3132
3106 3107 3109 3109 3110 3110 3111 3111 3111 3110 3110 3109 3109 3109 3109 3110 3111 3111 3112 3112 3112 3112 3112 3113 3115 3116 3117 3118 3118 3117 3117 3118 3118 3119 3119 3119 3120 3120 3121 3121 3120 3121 3122 3122 3121 3121 3121 3122 3123 3124 3124 3125 3125 3126 3126 3127 3128 3129 3129 3129 3128 3127 3128 3127 3126 3127 3126 3125 3124 3124 3124 3122 3121 3122 3122 3122 3123 3122 3123 3123 3123 3124 3124 3125 3126 3127 3128 3130
3104 3106 3107 3108 3109 3110 3110 3110 3110 3110 3110 3109 3109 3110 3109 3110 3110 3111 3111 3111 3112 3113 3113 3114 3116 3117 3117 3118 3118 3117 3118 3118 3118 3119 3120 3120 3120 3120 3121 3121 3120 3120 3121 3121 3121 3121 3120 3121 3123 3123 3124 3125 3125 3126 3126 3126 3127 3128 3128 3128 3128 3128 3128 3128 3128 3128 3127 3125 3124 3123 3122 3121 3121 3122 3122 3122 3122 3122 3122 3122 3122 3123 3124 3124 3125 3126 3127 3128
3103 3104 3105 3106 3108 3109 3109 3110 3110 3110 3110 3110 3110 3110 3110 3110 3110 3110 3110 3111 3111 3112 3114 3115 3116 3116 3116 3117 3117 3118 3118 3119 3119 3119 3119 3120 3120 3120 3120 3120 3119 3119 3120 3121 3122 3121 3120 3121 3123 3123 3124 3124 3124 3125 3125 3125 3126 3127 3127 3127 3127 3128 3128 3128 3127 3125 3123 3122 3122 3122 3121 3120 3119 3121 3122 3122 3122 3123 3122 3122 3122 3123 3123 3124 3124 3125 3126 3127
3101 3103 3104 3105 3107 3108 3109 3110 3110 3110 3111 3111 3111 3111 3110 3110 3110 3109 3110 3110 3111 3112 3114 3115 3115 3115 3115 3116 3117 3118 3118 3119 3119 3118 3118 3119 3119 3120 3120 3120 3119 3119 3120 3121 3122 3122 3121 3120 3122 3123 3123 3123 3124 3125 3125 3125 3126 3127 3127 3127 3127 3127 3127 3127 3126 3125 3123 3122 3121 3121 3120 3120 3119 3120 3121 3122 3123 3123 3122 3122 3122 3122 3123 3123 3124 3125 3125 3126
3100 3102 3103 3104 3106 3107 3108 3109 3110 3110 3111 3111 3112 3111 3111 3111 3110 3109 3110 3110 3111 3112 3114 3114 3114 3114 3115 3115 3116 3117 3118 3118 3118 3118 3118 3119 3119 3119 3120 3120 3120 3120 3120 3121 3122 3122 3122 3120 3121 3122 3123 3123 3124 3125 3125 3125 3126 3126 3126 3127 3127 3126 3126 3126 3126 3125 3123 3122 3122 3121 3119 3118 3120 3121 3121 3122 3123 3123 3123 3122 3123 3123 3123 3123 3123 3124 3125 3125
3099 3101 3103 3103 3105 3106 3107 3108 3109 3110 3111 3111 3112 3111 3111 3111 3110 3110 3110 3110 3110 3111 3112 3113 3113 3114 3114 3115 3116 3116 3117 3118 3118 3118 3118 3118 3119 3119 3119 3120 3120 3120 3121 3121 3122 3122 3123 3121 3120 3121 3122 3123 3124 3124 3124 3125 3126 3126 3126 3126 3126 3127 3126 3126 3125 3125 3124 3122 3122 3123 3120 3118 3120 3122 3122 3122 3122 3122 3123 3123 3123 3123 3123 3123 3123 3123 3124 3124
3098 3101 3102 3102 3104 3105 3106 3108 3109 3110 3111 3111 3111 3111 3111 3111 3110 3110 3110 3110 3110 3110 3111 3111 3113 3114 3114 3115 3115 3115 3116 3117 3118 3118 3118 3118 3119 3119 3119 3119 3120 3120 3121 3122 3122 3122 3122 3121 3120 3121 3122 3122 3123 3123 3123 3124 3125 3125 3125 3125 3125 3126 3125 3124 3123 3125 3125 3123 3123 3123 3122 3120 3121 3122 3122 3122 3122 3122 3122 3122 3122 3123 3122 3122 3122 3123 3123 3124
3098 3100 3101 3101 3103 3104 3106 3108 3108 3109 3110 3111 3111 3111 3111 3111 3111 3110 3110 3110 3110 3110 3111 3111 3112 3113 3113 3114 3115 3115 3116 3117 3117 3117 3118 3118 3118 3118 3119 3119 3119 3120 3121 3122 3122 3121 3121 3121 3121 3121 3120 3121 3122 3122 3123 3123 3124 3124 3124 3124 3124 3125 3125 3123 3122 3123 3124 3124 3124 3124 3122 3120 3120 3122 3122 3121 3121 3121 3121 3121 3121 3122 3121 3121 3122 3122 3122 3123
3098 3100 3100 3101 3103 3104 3106 3107 3107 3108 3109 3110 3110 3110 3110 3110 3111 3111 3110 3111 3111 3111 3111 3111 3112 3112 3113 3113 3114 3114 3115 3116 3116 3117 3117 3117 3118 3117 3117 3118 3119 3119 3120 3121 3121 3121 3121 3121 3121 3119 3119 3120 3121 3121 3122 3122 3123 3123 3123 3124 3124 3124 3125 3124 3123 3123 3123 3122 3122 3121 3120 3120 3120 3121 3121 3120 3120 3120 3120 3120 3120 3120 3120 3120 3121 3121 3122 3122
3097 3098 3099 3101 3102 3103 3105 3107 3107 3108 3109 3109 3110 3110 3110 3110 3110 3111 3111 3111 3111 3111 3111 3112 3112 3112 3113 3113 3113 3114 3115 3115 3116 3116 3116 3117 3117 3117 3117 3118 3118 3119 3119 3120 3120 3120 3120 3121 3120 3118 3118 3119 3119 3119 3121 3121 3122 3122 3123 3123 3124 3124 3124 3124 3124 3124 3123 3121 3121 3120 3118 3118 3120 3120 3120 3120 3120 3119 3119 3119 3119 3119 3119 3119 3120 3120 3121 3121
3097 3098 3099 3100 3102 3103 3104 3106 3107 3108 3108 3109 3110 3110 3110 3111 3110 3110 3111 3111 3110 3111 3111 3112 3112 3112 3113 3113 3113 3114 3114 3115 3116 3116 3116 3117 3117 3117 3117 3117 3118 3118 3118 3118 3119 3120 3120 3120 3120 3118 3115 3115 3116 3116 3119 3120 3121 3121 3122 3122 3122 3123 3123 3123 3123 3123 3121 3120 3121 3120 3118 3117 3119 3119 3119 3119 3119 3119 3118 3118 3118 3118 3118 3118 3119 3119 3119 3120
3097 3098 3099 3100 3101 3102 3103 3104 3105 3107 3108 3108 3109 3110 3110 3111 3110 3110 3111 3111 3111 3111 3111 3112 3112 3112 3113 3113 3114 3114 3115 3115 3115 3116 3116 3117 3117 3117 3116 3117 3117 3117 3117 3118 3118 3119 3119 3120 3119 3118 3116 3115 3115 3116 3118 3119 3120 3121 3121 3121 3121 3122 3122 3122 3123 3122 3121 3120 3119 3118 3117 3118 3118 3119 3118 3118 3118 3118 3118 3117 3117 3117 3118 3118 3118 3118 3118 3119
3096 3098 3099 3100 3101 3102 3103 3104 3105 3106 3107 3108 3109 3109 3110 3110 3110 3111 3111 3111 3111 3111 3111 3112 3112 3112 3113 3113 3114 3114 3115 3115 3115 3115 3116 3116 3117 3116 3116 3116 3117 3117 3117 3117 3118 3118 3119 3119 3118 3118 3119 3118 3118 3118 3118 3119 3120 3120 3120 3121 3121 3120 3120 3121 3121 3120 3121 3120 3117 3116 3117 3118 3118 3118 3118 3117 3117 3117 3117 3117 3117 3117 3117 3117 3117 3117 3117 3117
3096 3097 3098 3099 3100 3101 3103 3103 3104 3106 3107 3108 3108 3109 3110 3111 3111 3111 3111 3111 3111 3111 3112 3112 3112 3112 3112 3112 3113 3114 3114 3115 3115 3115 3115 3115 3116 3116 3116 3116 3116 3116 3116 3116 3117 3117 3118 3118 3117 3118 3119 3119 3118 3118 3118 3119 3120 3120 3120 3120 3120 3120 3119 3119 3119 3120 3120 3119 3116 3115 3117 3117 3117 3117 3117 3116 3116 3116 3116 3115 3115 3115 3116 3116 3116 3116 3116 3116
3095 3096 3097 3099 3100 3100 3102 3103 3104 3105 3106 3107 3108 3109 3110 3111 3111 3111 3111 3111 3111 3111 3112 3112 3112 3111 3111 3111 3112 3113 3113 3113 3114 3113 3113 3114 3114 3115 3116 3116 3116 3116 3116 3116 3116 3116 3117 3117 3117 3117 3118 3118 3118 3118 3118 3119 3119 3119 3119 3119 3119 3119 3118 3118 3118 3118 3118 3117 3116 3116 3115 3115 3115 3116 3115 3115 3114 3114 3114 3114 3114 3114 3114 3115 3115 3115 3115 3115
3094 3096 3097 3098 3099 3100 3101 3103 3104 3105 3106 3107 3108 3109 3109 3110 3110 3111 3111 3111 3111 3111 3111 3112 3111 3111 3111 3111 3111 3112 3112 3112 3112 3112 3112 3112 3113 3114 3114 3115 3115 3115 3115 3115 3115 3115 3116 3116 3116 3117 3117 3117 3117 3118 3117 3118 3118 3118 3117 3118 3118 3118 3117 3117 3117 3116 3116 3115 3115 3115 3114 3114 3114 3114 3114 3113 3113 3112 3112 3112 3112 3113 3113 3113 3113 3113 3113 3113
3093 3095 3096 3098 3099 3100 3101 3102 3104 3105 3106 3107 3108 3108 3109 3109 3110 3110 3111 3111 3111 3111 3111 3111 3111 3111 3111 3111 3111 3111 3111 3111 3111 3111 3111 3111 3112 3112 3113 3113 3114 3114 3114 3115 3114 3115 3116 3116 3116 3116 3116 3115 3116 3117 3117 3117 3117 3116 3116 3116 3116 3116 3117 3116 3115 3115 3114 3114 3114 3114 3113 3112 3112 3112 3112 3112 3111 3111 3111 3111 3111 3111 3111 3112 3112 3112 3112 3112
3092 3094 3096 3097 3099 3100 3101 3102 3103 3105 3106 3106 3107 3108 3108 3109 3109 3110 3110 3110 3111 3111 3111 3111 3111 3112 3112 3111 3111 3111 3111 3111 3111 3110 3110 3110 3111 3111 3111 3112 3112 3113 3113 3114 3114 3114 3115 3115 3115 3116 3115 3114 3115 3116 3116 3116 3114 3113 3114 3115 3114 3115 3115 3114 3113 3113 3112 3112 3113 3112 3111 3110 3111 3111 3111 3110 3110 3109 3109 3110 3110 3110 3110 3110 3110 3110 3110 3110